Date String (YYYY-MM-DD hh:mm:ss) UTC,Instrument flags,Ambient pressure (hPa),Sample flow (lpm),Bypass flow (lpm),Sample temperature (°C),Ambient temperature (°C),ASC tube jacket temperature (°C),LED temperature (°C),Box temperature (°C),Sample RH (%),Span deviation,Mass concentration (μg/m³),Mass concentration (μg/m³),Mass concentration (μg/m³)
DateTimeUTC,F1_M11,P_M11,Q1_M11,Q2_M11,T1_M11,T2_M11,T3_M11,T4_M11,T5_M11,U1_M11,ZSPAN_M11,X2_M11,X0_M11,X1_M11
2023-01-30 13:00:00,,0824.2,5.00,0.00,22.2,22.8,00.0,30.9,24.2,03.7,0002.1,0005.63,0009.47,0004.88
2023-01-30 13:01:00,,0824.2,4.99,0.00,22.3,22.5,00.0,30.9,24.2,03.7,0002.3,0005.69,0009.64,0004.90
2023-01-30 13:02:00,,0824.3,5.00,0.00,22.2,21.7,00.0,31.0,24.0,03.7,0002.6,0005.72,0009.66,0004.92
2023-01-30 13:03:00,,0824.3,4.98,0.00,22.2,21.1,00.0,31.0,23.8,03.7,0002.5,0005.74,0009.68,0004.93
2023-01-30 13:04:00,,0824.3,4.97,0.00,22.1,20.7,00.0,31.0,23.7,03.7,0002.6,0005.75,0009.66,0004.94
2023-01-30 13:05:00,,0824.2,4.99,0.00,22.1,20.5,00.0,31.0,23.6,03.7,0002.6,0005.74,0009.58,0004.95
2023-01-30 13:06:00,,0824.4,5.01,0.00,22.0,20.2,00.0,30.9,23.5,03.7,0002.1,0005.73,0009.55,0004.95
2023-01-30 13:07:00,,0824.4,4.99,0.00,22.0,20.4,00.0,30.9,23.5,03.7,0002.0,0005.75,0009.62,0004.96
2023-01-30 13:08:00,,0824.3,5.01,0.00,22.1,21.6,00.0,30.9,23.8,03.7,0002.2,0005.79,0009.66,0004.99
2023-01-30 13:09:00,,0824.3,4.99,0.00,22.2,22.5,00.0,30.9,24.1,03.7,0002.3,0005.80,0009.66,0004.99
2023-01-30 13:10:00,,0824.3,4.99,0.00,22.3,22.9,00.0,30.9,24.3,03.7,0002.7,0005.82,0009.72,0005.00
2023-01-30 13:11:00,,0824.3,5.00,0.00,22.3,22.0,00.0,31.0,24.1,03.7,0002.6,0005.84,0009.73,0005.02
2023-01-30 13:12:00,,0824.3,4.98,0.00,22.2,21.3,00.0,31.0,23.8,03.7,0002.4,0005.85,0009.68,0005.04
2023-01-30 13:13:00,,0824.2,5.01,0.00,22.2,20.6,00.0,31.0,23.7,03.7,0002.2,0005.88,0009.72,0005.07
2023-01-30 13:14:00,,0824.2,5.00,0.00,22.1,20.1,00.0,31.0,23.5,03.7,0002.0,0005.89,0009.71,0005.09
2023-01-30 13:15:00,,0824.4,5.01,0.00,22.0,19.7,00.0,30.9,23.3,03.7,0001.8,0005.87,0009.68,0005.09
2023-01-30 13:16:00,,0824.4,5.01,0.00,22.0,20.6,00.0,30.9,23.5,03.7,0001.8,0005.92,0009.84,0005.07
2023-01-30 13:17:00,,0824.4,5.00,0.00,22.1,21.8,00.0,30.9,23.8,03.7,0002.2,0005.93,0009.83,0005.08
2023-01-30 13:18:00,,0824.3,5.00,0.00,22.2,22.6,00.0,30.9,24.1,03.7,0002.3,0005.92,0009.77,0005.09
2023-01-30 13:19:00,,0824.4,4.99,0.00,22.2,22.3,00.0,30.9,24.1,03.7,0002.2,0005.89,0009.75,0005.06
2023-01-30 13:20:00,,0824.5,5.00,0.00,22.2,21.3,00.0,30.9,23.8,03.7,0002.3,0005.86,0009.74,0005.03
2023-01-30 13:21:00,,0824.4,5.01,0.00,22.1,20.6,00.0,30.9,23.6,03.7,0002.2,0005.83,0009.71,0005.00
2023-01-30 13:22:00,,0824.2,5.04,0.00,22.0,20.0,00.0,30.9,23.3,03.7,0001.4,0005.80,0009.69,0004.99
2023-01-30 13:23:00,,0824.3,4.99,0.00,21.9,19.5,00.0,30.9,23.2,03.7,0001.3,0005.70,0009.49,0004.94
2023-01-30 13:24:00,,0824.3,4.98,0.00,21.8,19.7,00.0,30.8,23.2,03.7,0001.5,0005.61,0009.34,0004.88
2023-01-30 13:25:00,,0824.3,4.97,0.00,21.9,21.0,00.0,30.8,23.5,03.7,0001.5,0005.56,0009.24,0004.84
2023-01-30 13:26:00,,0824.2,5.03,0.00,22.0,22.1,00.0,30.8,23.8,03.7,0001.2,0005.51,0009.13,0004.83
2023-01-30 13:27:00,,0824.2,4.99,0.00,22.1,22.6,00.0,30.8,24.0,03.7,0001.3,0005.42,0008.93,0004.81
2023-01-30 13:28:00,,0824.2,4.97,0.00,22.1,21.9,00.0,30.9,23.9,03.7,0001.2,0005.41,0008.92,0004.80
2023-01-30 13:29:00,,0824.4,5.00,0.00,22.1,21.2,00.0,30.9,23.7,03.7,0001.1,0005.45,0009.00,0004.81
2023-01-30 13:30:00,,0824.4,4.99,0.00,22.0,20.7,00.0,30.9,23.6,03.7,0001.2,0005.47,0009.02,0004.81
2023-01-30 13:31:00,,0824.5,5.00,0.00,22.0,20.3,00.0,30.9,23.5,03.7,0001.1,0005.50,0009.12,0004.83
2023-01-30 13:32:00,,0824.3,5.00,0.00,21.9,20.1,00.0,30.8,23.4,03.7,0001.1,0005.52,0009.25,0004.84
2023-01-30 13:33:00,,0824.3,4.99,0.00,21.9,20.3,00.0,30.8,23.4,03.7,0001.8,0005.55,0009.32,0004.83
2023-01-30 13:34:00,,0824.2,5.01,0.00,22.0,21.4,00.0,30.8,23.7,03.7,0002.1,0005.58,0009.36,0004.85
2023-01-30 13:35:00,,0824.2,4.99,0.00,22.1,22.3,00.0,30.8,24.0,03.7,0002.6,0005.59,0009.39,0004.86
2023-01-30 13:36:00,,0824.2,5.00,0.00,22.2,22.9,00.0,30.8,24.2,03.6,0002.6,0005.62,0009.45,0004.88
2023-01-30 13:37:00,,0824.3,4.99,0.00,22.2,22.4,00.0,30.9,24.1,03.6,0002.8,0005.63,0009.52,0004.87
2023-01-30 13:38:00,,0824.3,5.02,0.00,22.2,21.8,00.0,30.9,24.0,03.6,0002.8,0005.64,0009.55,0004.87
2023-01-30 13:39:00,,0824.2,4.99,0.00,22.2,21.3,00.0,30.9,23.9,03.6,0002.7,0005.63,0009.51,0004.87
2023-01-30 13:40:00,,0824.1,4.99,0.00,22.1,20.9,00.0,30.9,23.7,03.6,0003.1,0005.59,0009.46,0004.84
2023-01-30 13:41:00,,0824.1,5.03,0.00,22.1,20.5,00.0,30.9,23.6,03.6,0003.3,0005.55,0009.86,0004.82
2023-01-30 13:42:00,,0824.1,5.00,0.00,22.0,20.3,00.0,30.9,23.5,03.7,0003.2,0005.49,0009.80,0004.80
2023-01-30 13:43:00,,0824.2,5.01,0.00,22.0,20.9,00.0,30.9,23.7,03.7,0003.3,0005.45,0009.57,0004.79
2023-01-30 13:44:00,,0824.2,5.00,0.00,22.1,21.8,00.0,30.9,24.0,03.6,0003.0,0005.41,0009.44,0004.79
2023-01-30 13:45:00,,0824.3,4.98,0.00,22.2,22.7,00.0,30.9,24.2,03.6,0002.6,0005.39,0009.41,0004.77
2023-01-30 13:46:00,,0824.2,4.99,0.00,22.3,22.9,00.0,30.9,24.3,03.6,0002.5,0005.42,0009.49,0004.76
2023-01-30 13:47:00,,0824.1,5.02,0.00,22.3,22.2,00.0,31.0,24.2,03.6,0002.4,0005.44,0009.55,0004.76
2023-01-30 13:48:00,,0824.1,4.98,0.00,22.3,21.5,00.0,31.0,24.0,03.6,0002.7,0005.49,0009.62,0004.80
2023-01-30 13:49:00,,0824.1,5.00,0.00,22.3,21.1,00.0,31.0,23.9,03.6,0002.8,0005.52,0009.65,0004.82
2023-01-30 13:50:00,,0824.1,5.01,0.00,22.2,20.7,00.0,31.0,23.8,03.6,0002.8,0005.55,0009.71,0004.84
2023-01-30 13:51:00,,0824.2,4.99,0.00,22.2,20.5,00.0,31.0,23.7,03.6,0002.5,0005.57,0009.75,0004.85
2023-01-30 13:52:00,,0824.2,5.00,0.00,22.1,20.3,00.0,31.0,23.6,03.6,0002.0,0005.61,0009.30,0004.89
2023-01-30 13:53:00,,0824.1,5.00,0.00,22.1,20.7,00.0,31.0,23.7,03.6,0001.9,0005.68,0009.38,0004.92
2023-01-30 13:54:00,,0824.0,5.01,0.00,22.2,21.8,00.0,30.9,24.0,03.6,0001.4,0005.71,0009.43,0004.94
2023-01-30 13:55:00,,0824.1,5.00,0.00,22.3,22.7,00.0,30.9,24.2,03.6,0001.5,0005.72,0009.45,0004.96
2023-01-30 13:56:00,,0824.1,4.99,0.00,22.4,22.9,00.0,31.0,24.4,03.6,0001.6,0005.76,0009.47,0005.00
2023-01-30 13:57:00,,0824.1,5.00,0.00,22.4,22.3,00.0,31.1,24.2,03.6,0001.3,0005.79,0009.56,0005.04
2023-01-30 13:58:00,,0824.1,5.01,0.00,22.4,21.7,00.0,31.1,24.1,03.6,0001.0,0005.80,0009.55,0005.06
2023-01-30 13:59:00,,0824.0,4.98,0.00,22.3,21.2,00.0,31.1,24.0,03.6,0000.3,0005.79,0009.51,0005.06
